Crookston, MN

7:27 PM CST on December 11, 2017 (GMT -0600)
Crookston Municipal-Kirkwood

Weather History for KCKN - October, 2013

Change the Weather History Date:

Thursday, October 31, 2013

  Actual Average Record
Temperature  
Mean Temperature 38 °F -  
Max Temperature 46 °F 41 °F 73 °F (1999)
Min Temperature 30 °F 27 °F 10 °F (1996)
Degree Days  
Heating Degree Days 27    
Moisture  
Dew Point 35 °F    
Average Humidity 85    
Maximum Humidity 93    
Minimum Humidity 70    
Precipitation  
Precipitation 0.00 in - - ()
Sea Level Pressure  
Sea Level Pressure 29.52 in    
Wind  
Wind Speed 4 mph (WSW)    
Max Wind Speed 9 mph    
Max Gust Speed -    
Visibility 8 miles    
Events      
Averages and records for this station are not official NWS values.
T = Trace of Precipitation, MM = Missing Value Source: NWS Daily Summary

Daily Weather History Graph

Daily Weather History Graph

Search for Another Location

Airport or City:

Trip Planner

Search our weather history database for the weather conditions in past years. The results will help you decide how hot, cold, wet, or windy it might be!

Date:

Astronomy

Oct. 31, 2013 Rise Set
Actual Time 8:09 AM CDT 6:09 PM CDT
Civil Twilight 7:37 AM CDT 6:41 PM CDT
Nautical Twilight 7:01 AM CDT 7:18 PM CDT
Astronomical Twilight 6:25 AM CDT 7:54 PM CDT
Moon 4:48 AM CDT (10/31) 4:38 PM CDT (10/31)
Length of Visible Light 11h 04m
Length of Day
9h 59m
Waning Crescent, 10% of the Moon is Illuminated
Oct 31
Waning Crescent
Nov 3
New
Nov 9
First Quarter
Nov 17
Full
Nov 25
Last Quarter

Hourly Weather History & Observations

Time (CDT) Temp. Windchill Dew Point Humidity Pressure Visibility Wind Dir Wind Speed Gust Speed Precip Events Conditions
12:14 AM 37.4 °F 32.8 °F 35.6 °F 93% 29.68 in 4.0 mi SSW 5.8 mph - N/A   Overcast
12:34 AM 37.4 °F 33.8 °F 35.6 °F 93% 29.67 in 4.0 mi SW 4.6 mph - N/A   Overcast
12:55 AM 37.4 °F 32.8 °F 35.6 °F 93% 29.67 in 4.0 mi SW 5.8 mph - N/A   Overcast
1:14 AM 37.4 °F 32.8 °F 35.6 °F 93% 29.66 in 5.0 mi SW 5.8 mph - N/A   Overcast
1:34 AM 37.4 °F 32.8 °F 35.6 °F 93% 29.65 in 4.0 mi SW 5.8 mph - N/A   Overcast
1:55 AM 37.4 °F 32.8 °F 35.6 °F 93% 29.64 in 4.0 mi SW 5.8 mph - N/A   Overcast
2:14 AM 37.4 °F 33.8 °F 35.6 °F 93% 29.64 in 5.0 mi SW 4.6 mph - N/A   Overcast
2:34 AM 37.4 °F 34.9 °F 35.6 °F 93% 29.63 in 5.0 mi SW 3.5 mph - N/A   Overcast
2:55 AM 37.4 °F 33.8 °F 35.6 °F 93% 29.62 in 5.0 mi SSW 4.6 mph - N/A   Overcast
3:14 AM 37.4 °F 34.9 °F 35.6 °F 93% 29.62 in 5.0 mi SW 3.5 mph - N/A   Overcast
3:34 AM 37.4 °F 34.9 °F 35.6 °F 93% 29.61 in 5.0 mi SW 3.5 mph - N/A   Overcast
3:54 AM 37.4 °F 34.9 °F 35.6 °F 93% 29.60 in 5.0 mi SSW 3.5 mph - N/A   Overcast
4:14 AM 37.4 °F 33.8 °F 35.6 °F 93% 29.59 in 5.0 mi SSW 4.6 mph - N/A   Overcast
4:35 AM 37.4 °F 32.8 °F 35.6 °F 93% 29.59 in 5.0 mi South 5.8 mph - N/A   Overcast
4:54 AM 37.4 °F 33.8 °F 35.6 °F 93% 29.58 in 7.0 mi SSW 4.6 mph - N/A   Scattered Clouds
5:15 AM 37.4 °F 33.8 °F 35.6 °F 93% 29.57 in 5.0 mi SSW 4.6 mph - N/A   Clear
5:35 AM 37.4 °F 32.8 °F 35.6 °F 93% 29.57 in 7.0 mi SSW 5.8 mph - N/A   Mostly Cloudy
5:54 AM 37.4 °F 32.8 °F 35.6 °F 93% 29.57 in 7.0 mi SSW 5.8 mph - N/A   Overcast
6:15 AM 37.4 °F 32.8 °F 35.6 °F 93% 29.57 in 7.0 mi SSW 5.8 mph - N/A   Overcast
6:34 AM 37.4 °F 33.8 °F 35.6 °F 93% 29.56 in 7.0 mi SSW 4.6 mph - N/A   Overcast
6:54 AM 37.4 °F 33.8 °F 35.6 °F 93% 29.55 in 7.0 mi SW 4.6 mph - N/A   Overcast
7:15 AM 37.4 °F - 35.6 °F 93% 29.55 in 7.0 mi Calm Calm - N/A   Overcast
7:34 AM 37.4 °F - 35.6 °F 93% 29.54 in 7.0 mi Calm Calm - N/A   Overcast
7:54 AM 37.4 °F - 35.6 °F 93% 29.53 in 7.0 mi Calm Calm - N/A   Unknown
8:15 AM 37.4 °F - 35.6 °F 93% 29.53 in 7.0 mi Calm Calm - N/A   Unknown
8:34 AM 37.4 °F - 35.6 °F 93% 29.53 in 7.0 mi Calm Calm - N/A   Overcast
8:55 AM 37.4 °F 34.9 °F 35.6 °F 93% 29.53 in 5.0 mi South 3.5 mph - N/A   Overcast
9:14 AM 37.4 °F 34.9 °F 35.6 °F 93% 29.53 in 5.0 mi SSW 3.5 mph - N/A   Overcast
9:34 AM 37.4 °F 32.8 °F 35.6 °F 93% 29.54 in 7.0 mi SSW 5.8 mph - N/A   Overcast
9:55 AM 37.4 °F 33.8 °F 35.6 °F 93% 29.54 in 7.0 mi SSW 4.6 mph - N/A   Overcast
10:14 AM 37.4 °F 33.8 °F 35.6 °F 93% 29.53 in 7.0 mi SW 4.6 mph - N/A   Overcast
10:35 AM 39.2 °F 35.9 °F 35.6 °F 87% 29.53 in 7.0 mi SSW 4.6 mph - N/A   Overcast
10:54 AM 39.2 °F 37.0 °F 35.6 °F 87% 29.52 in 10.0 mi SW 3.5 mph - N/A   Overcast
11:15 AM 39.2 °F 37.0 °F 35.6 °F 87% 29.52 in 10.0 mi SW 3.5 mph - N/A   Mostly Cloudy
11:35 AM 39.2 °F - 35.6 °F 87% 29.51 in 10.0 mi Calm Calm - N/A   Overcast
11:54 AM 39.2 °F - 37.4 °F 93% 29.51 in 10.0 mi Calm Calm - N/A   Overcast
12:15 PM 41.0 °F - 37.4 °F 87% 29.51 in 10.0 mi Calm Calm - N/A   Overcast
12:34 PM 41.0 °F - 37.4 °F 87% 29.50 in 10.0 mi Calm Calm - N/A   Overcast
12:54 PM 42.8 °F - 37.4 °F 81% 29.50 in 10.0 mi Calm Calm - N/A   Mostly Cloudy
1:15 PM 42.8 °F 41.1 °F 37.4 °F 81% 29.49 in 10.0 mi SSW 3.5 mph - N/A   Mostly Cloudy
1:34 PM 42.8 °F 41.1 °F 37.4 °F 81% 29.48 in 10.0 mi SSW 3.5 mph - N/A   Overcast
1:55 PM 42.8 °F 41.1 °F 37.4 °F 81% 29.47 in 10.0 mi WSW 3.5 mph - N/A   Overcast
2:15 PM 44.6 °F - 37.4 °F 76% 29.45 in 10.0 mi Calm Calm - N/A   Overcast
2:34 PM 44.6 °F 43.1 °F 35.6 °F 71% 29.45 in 10.0 mi West 3.5 mph - N/A   Overcast
2:55 PM 44.6 °F - 35.6 °F 71% 29.44 in 10.0 mi Calm Calm - N/A   Overcast
3:14 PM 44.6 °F 43.1 °F 35.6 °F 71% 29.43 in 10.0 mi West 3.5 mph - N/A   Overcast
3:34 PM 46.4 °F 45.2 °F 37.4 °F 71% 29.43 in 10.0 mi NW 3.5 mph - N/A   Overcast
3:55 PM 46.4 °F 45.2 °F 37.4 °F 71% 29.43 in 10.0 mi West 3.5 mph - N/A   Overcast
4:14 PM 46.4 °F 43.5 °F 37.4 °F 71% 29.43 in 10.0 mi NW 5.8 mph - N/A   Overcast
4:35 PM 46.4 °F 45.2 °F 37.4 °F 71% 29.43 in 10.0 mi WNW 3.5 mph - N/A   Scattered Clouds
4:54 PM 46.4 °F - 37.4 °F 71% 29.43 in 10.0 mi Calm Calm - N/A   Clear
5:14 PM 46.4 °F 45.2 °F 37.4 °F 71% 29.43 in 10.0 mi WSW 3.5 mph - N/A   Clear
5:35 PM 46.4 °F - 37.4 °F 71% 29.43 in 10.0 mi Calm Calm - N/A   Clear
5:54 PM 44.6 °F 43.1 °F 37.4 °F 76% 29.43 in 10.0 mi SW 3.5 mph - N/A   Clear
6:15 PM 42.8 °F 40.1 °F 37.4 °F 81% 29.43 in 10.0 mi SSW 4.6 mph - N/A   Scattered Clouds
6:34 PM 42.8 °F 40.1 °F 37.4 °F 81% 29.43 in 10.0 mi SW 4.6 mph - N/A   Mostly Cloudy
6:54 PM 42.8 °F 40.1 °F 37.4 °F 81% 29.44 in 10.0 mi WSW 4.6 mph - N/A   Overcast
7:14 PM 42.8 °F 40.1 °F 37.4 °F 81% 29.44 in 1.2 mi West 4.6 mph - N/A   Haze
7:35 PM 42.8 °F 37.5 °F 35.6 °F 76% 29.44 in 10.0 mi North 9.2 mph - N/A   Scattered Clouds
7:55 PM 42.8 °F 37.5 °F 33.8 °F 70% 29.45 in 10.0 mi North 9.2 mph - N/A   Clear
8:14 PM 42.8 °F 37.5 °F 33.8 °F 70% 29.45 in 10.0 mi North 9.2 mph - N/A   Clear
8:35 PM 41.0 °F 36.4 °F 33.8 °F 76% 29.45 in 10.0 mi NNW 6.9 mph - N/A   Clear
8:54 PM 41.0 °F 37.1 °F 33.8 °F 76% 29.45 in 10.0 mi NNW 5.8 mph - N/A   Clear
9:14 PM 39.2 °F 33.0 °F 33.8 °F 81% 29.45 in 10.0 mi NNW 9.2 mph - N/A   Clear
9:35 PM 39.2 °F 33.0 °F 33.8 °F 81% 29.45 in 10.0 mi NNW 9.2 mph - N/A   Clear
9:54 PM 39.2 °F 33.6 °F 32.0 °F 75% 29.46 in 10.0 mi North 8.1 mph - N/A   Clear
10:15 PM 35.6 °F 31.7 °F 30.2 °F 81% 29.46 in 10.0 mi NNW 4.6 mph - N/A   Clear
10:34 PM 33.8 °F 28.6 °F 30.2 °F 87% 29.47 in 10.0 mi NW 5.8 mph - N/A   Clear
10:55 PM 32.0 °F 27.5 °F 30.2 °F 93% 29.48 in 10.0 mi NNW 4.6 mph - N/A   Clear
11:14 PM 30.2 °F 25.4 °F 28.4 °F 93% 29.48 in 10.0 mi NW 4.6 mph - N/A   Clear
11:35 PM 32.0 °F 26.4 °F 28.4 °F 87% 29.48 in 10.0 mi NW 5.8 mph - N/A   Clear
11:54 PM 30.2 °F 24.3 °F 28.4 °F 93% 29.48 in 10.0 mi NW 5.8 mph - N/A   Clear